Regional Weather Roundup
Issued by NWS

Home | Current Version | Previous Version | Graphics & Text | Print | Product List | Glossary On
Versions: 1 2 3 4 5 6 7 8 9 10 11 12 13 14 15 16 17 18 19 20 21 22 23 24 25 26 27 28 29 30 31 32 33 34 35 36 37 38 39 40 41 42 43 44 45 46 47 48 49 50
059
ASUS43 KFSD 211502
RWRSD

WEATHER ROUNDUP FOR SOUTH DAKOTA
NATIONAL WEATHER SERVICE SIOUX FALLS SD
1000 AM CDT SAT APR 21 2018

NOTE: "FAIR" INDICATES FEW OR NO CLOUDS BELOW 12,000 FEET WITH NO
SIGNIFICANT WEATHER AND/OR OBSTRUCTIONS TO VISIBILITY.


SDZ001>005-009-010-012>017-211600-
NORTHWEST AND NORTH CENTRAL SOUTH DAKOTA

CITY           SKY/WX    TMP DP  RH WIND       PRES   REMARKS
BUFFALO          N/A     43  36  76 S17G23    30.11S
FAITH            N/A     43  40  89 S21       30.24F
MOBRIDGE       CLOUDY    46  40  79 SE10      30.28S
$$

SDZ012>016-024>037-041>051-057-063-072>074-211600-
SOUTHWEST AND SOUTH CENTRAL SOUTH DAKOTA

CITY           SKY/WX    TMP DP  RH WIND       PRES   REMARKS
RAPID CTY ARPT CLOUDY    40  38  93 S10       30.22F
PIERRE         CLOUDY    44  42  93 SE7       30.30F
CUSTER         CLOUDY    32  30  92 CALM      30.18R FOG
ELLSWORTH AFB  PTSUNNY  N/A N/A N/A S15       30.21
PHILIP         CLOUDY    43  41  93 S6        30.26F
PINE RIDGE     CLOUDY    40  37  89 S7        30.23S
SPEARFISH      FAIR      45  34  65 E6        30.17F
WINNER         LGT RAIN  41  37  86 SE5       30.32S FOG
$$

SDZ004>011-016>023-039-040-211600-
NORTHEAST SOUTH DAKOTA

CITY           SKY/WX    TMP DP  RH WIND       PRES   REMARKS
ABERDEEN       CLOUDY    48  37  65 S7        30.36S
WATERTOWN      CLOUDY    44  35  70 SE7       30.36S
BROOKINGS      CLOUDY    42  33  70 SE5       30.37F
SISSETON         N/A     48  36  63 SE6       30.36F
$$

SDZ017-020-022-023-036>040-048>070-211600-
SOUTHEAST SOUTH DAKOTA

CITY           SKY/WX    TMP DP  RH WIND       PRES   REMARKS
SIOUX FALLS    CLOUDY    43  33  68 CALM      30.36F
HURON          CLOUDY    41  34  76 MISG      30.35F
CHAMBERLAIN    CLOUDY    43  42  97 SE9       30.34R
MITCHELL       CLOUDY    41  33  73 S8        30.35F
YANKTON        CLOUDY    42  34  73 NE7       30.35S
$$

ABBREVIATIONS USED IN REMARKS
   TC - TEMPERATURE IN CELSIUS
  WCI - WIND CHILL INDEX
   HX - HEAT INDEX
  VSB - VISIBILITY





USA.gov is the U.S. government's official web portal to all federal, state and local government web resources and services.